Regional Weather Roundup
Issued by NWS Grand Forks, ND

Home | Current Version | Previous Version | Graphics & Text | Print | Product List | Glossary On
Versions: 1 2 3 4 5 6 7 8 9 10 11 12 13 14 15 16 17 18 19 20 21 22 23 24 25 26 27 28 29 30 31 32 33 34 35 36 37 38 39 40 41 42 43 44 45 46 47 48 49 50
319
ASUS43 KFGF 202131
RWRFGF
PRAIRIE TO PINES  WEATHER ROUNDUP
NATIONAL WEATHER SERVICE EASTERN NORTH DAKOTA/GRAND FORKS ND
300 PM CST MON FEB 20 2017

 **SATELLITE DATA USED TO AUGMENT SKY COVER AT AUTOMATED STATIONS**
 *****  WEATHER ACROSS EASTERN NORTH DAKOTA  *****

CITY           SKY/WX    TMP DP  RH WIND       PRES   REMARKS
GRAND FORKS    LGT RAIN  37  32  82 W13       29.63R
GRAND FRKS AFB LGT RAIN  36  36  99 NW10      29.63R
DEVILS LAKE    CLOUDY    34  33  96 W17       29.65R WCI  23
FARGO          CLOUDY    40  38  93 NW14      29.62R
WAHPETON ARPT  CLOUDY    39  36  87 NW13      29.64R
$$

 ***** WEATHER ACROSS CENTRAL AND WESTERN NORTH DAKOTA  *****

CITY           SKY/WX    TMP DP  RH WIND       PRES   REMARKS
BISMARCK       FAIR      49  37  63 W9        29.72S
MINOT          FAIR      49  36  61 W15       29.65F
JAMESTOWN      PTSUNNY   39  36  89 NW15      29.66R
MINOT AFB      FAIR      42  37  80 W10       29.64F
GARRISON         N/A     48  38  68 W12       29.67F
WILLISTON      FAIR      46  31  55 W15       29.70R
DICKINSON      FAIR      53  23  31 W17       29.70F
HETTINGER      FAIR      55  28  35 W18       29.76S
$$

 *****  OTHER AIRPORT OBSERVATIONS IN OUR AREA  *****

CITY           SKY/WX    TMP DP  RH WIND       PRES   REMARKS
WALHALLA       NOT AVBL
GRAFTON AIRPOR DRIZZLE   36  36 100 NW13G18   29.64R
VALLEY CITY AR LGT RAIN  36  36 100 NW13G25   29.67R
CANDO          NOT AVBL
CAVALIER APRT  FAIR      37  34  87 NW6       29.61S
GWINNER        CLOUDY    39  37  93 NW10      29.68R
SHEYENNE NWR     N/A     39  36  88 NW12      29.95S
ROLLA          FAIR      37  37 100 NE3       29.62S
 ***** THE ABOVE OBSERVATIONS ARE NON NWS ARE NOT QUALITY
       CONTROLLED AND MAY MIS-REPORT RAIN FOR SNOW...
$$

  *****  WEATHER ACROSS NORTHERN MINNESOTA  *****

CITY           SKY/WX    TMP DP  RH WIND       PRES   REMARKS
FLAG ISLAND    RAIN      36  36 100 S6        29.54S VSB<1/4
WARROAD        LGT RAIN  41  37  87 CALM      29.54F VSB 1/2
ROSEAU         LGT RAIN  41  36  81 SW7       29.54F
HALLOCK        LGT RAIN  36  34  93 NW8       29.60R
THF RVR FALLS  LGT RAIN  36  34  93 NW10      29.61R
BAUDETTE       LGT RAIN  41  40  96 S8        29.54F FOG
WASKISH        DRIZZLE   45  45 100 S10G16    29.56F
CROOKSTON      MIX PCPN  36  36 100 W6        29.63R
STEPHEN NDAWN    N/A     36  34  93 NW9         N/A
GREENBUSH NDAW   N/A     34  34 100 NW10        N/A
$$
  *****  WEATHER ACROSS CENTRAL AND WEST MINNESOTA  *****

CITY           SKY/WX    TMP DP  RH WIND       PRES   REMARKS
FOSSTON        RAIN      39  39 100 W6        29.59R VSB 1/2
BEMIDJI        RAIN      43  43 100 S6        29.56F VSB<1/4
PARK RAPIDS    LGT RAIN  46  44  93 SE12      29.55F VSB 1/4
ELBOW LAKE     LGT RAIN  46  46 100 NW10      29.60R VSB<1/4
WADENA         CLOUDY    46  46 100 SE8       29.56F FOG
DETROIT LAKES  LGT RAIN  41  41 100 NW13G21   29.60R VSB 1/4
MOORHEAD       CLOUDY    37  37 100 NW15      29.63R
FERGUS FALLS   CLOUDY    43  43 100 NW12      29.64R FOG
MORRIS MN      FOG       52  52 100 S6        29.58S VSB<1/4
STAPLES        LGT RAIN  46  46 100 SE8       29.60S
$$
  *****  WEATHER ELSEWHERE ACROSS MINNESOTA  *****

CITY           SKY/WX    TMP DP  RH WIND       PRES   REMARKS
DULUTH         RAIN      40  39  97 SE15      29.66F VSB 1
INTRNTL FALLS  LGT RAIN  44  42  93 S7        29.57F FOG
ELY            RAIN      41  39  93 SE14      29.66F
CLOQUET        LGT RAIN  37  36  93 E8        29.65F
WHEATON        CLOUDY    41  39  93 W12G17    29.65R
BRAINERD       LGT RAIN  47  47 100 S6        29.63R FOG
HIBBING        LGT RAIN  39  39 100 SE8       29.63F FOG
ALEXANDRIA     FOG       50  50 100 S12       29.60S VSB 1/4
SAINT CLOUD    LGT RAIN  48  48 100 S8        29.64S FOG
MINNEAPOLIS    LGT RAIN  52  49  89 S14G22    29.66F FOG
$$

  *****  WEATHER ACROSS SOUTH DAKOTA  *****

CITY           SKY/WX    TMP DP  RH WIND       PRES   REMARKS
SIOUX FALLS    PTSUNNY   51  45  79 W16       29.70R
BROOKINGS      CLOUDY    50  45  81 NW21      29.68R
WATERTOWN      PTSUNNY   46  41  82 NW16      29.68R
HURON          FAIR      53  42  66 NW18      29.73R
SISSETON         N/A     43  41  93 NW17      29.62R
ABERDEEN       FAIR      49  38  65 NW17      29.71R
MITCHELL       PTSUNNY   56  44  64 NW21      29.76R
PIERRE         FAIR      60  34  37 NW17      29.76R
MOBRIDGE       FAIR      53  39  59 N8        29.71S
RAPID CITY     FAIR      63  15  15 NW8       29.81S
$$

  *****  SOME WEATHER IN NEARBY STATES *****

CITY           SKY/WX    TMP DP  RH WIND       PRES   REMARKS
GLASGOW MT     FAIR      51  23  33 SW6       29.66F
GREAT FALLS MT PTSUNNY   52  26  36 SW15      29.53F
CHEYENNE WY    FAIR      54  16  22 W24G30    30.00R
SCOTTSBLUFF NE FAIR      62  17  17 W17G29    29.91F
OMAHA NE       PTSUNNY   61  55  81 S6        29.75S
DES MOINES IA  CLOUDY    61  58  90 SW12      29.78R
DAVENPORT IA   FAIR      68  51  54 S16G26    29.83F
CHICAGO IL     CLOUDY    69  47  45 SE17      29.98F
EAU CLAIRE WI  LGT RAIN  50  49  96 SE12      29.72F FOG
LA CROSSE WI   RAIN      55  52  89 S13G22    29.77S FOG
$$

  *****  SOME NATIONAL WEATHER *****

CITY           SKY/WX    TMP DP  RH WIND       PRES   REMARKS
LA GUARDIA NY  FAIR      54  17  23 NW9       30.18R
RALEIGH NC     PTSUNNY   71  31  22 SE3       30.17S
ATLANTA GA     PTSUNNY   73  44  35 SE6       30.13F
NEW ORLEANS LA CLOUDY    77  68  73 S14       29.99F
OKLAHOMA CITY  PTSUNNY   63  53  70 S14       29.87F
ALBUQUERQUE NM FAIR      57  25  29 NW17G25   30.19F
SALT LAKE CITY PTSUNNY   54  34  46 S20G37    29.96F
LOS ANGELES CA CLOUDY    59  54  83 SE9       30.25F
BOISE ID       PTSUNNY   56  40  55 S14       29.75F
SEATTLE WA     LGT RAIN  45  43  93 W6        29.59R
$$

*** WEATHER ACROSS MANITOBA...SASKATCHEWAN AND ONTARIO ***
                ***ONTARIO***

CITY           SKY/WX    TMP DP  RH WIND       PRES   REMARKS
GERALDTON      CLOUDY    43  28  56 SE16G24   29.95F
THUNDER BAY    CLOUDY    36  34  93 E18       29.86F
SIOUX LOOKOUT  LGT RAIN  39  37  93 S7        29.63F FOG
TORONTO        MOSUNNY   36  25  64 SE8       30.34S
BIG TROUT LK   LGT RAIN  32  32 100 SE13      29.68F WCI  22
PICKLE LAKE    LGT RAIN  36  34  93 SE15G22   29.67F
DRYDEN         LGT RAIN  39  39 100 SE14G20   29.57F FOG
KENORA         LGT RAIN  41  39  93 S12       29.54F FOG
$$
                *** MANITOBA***

CITY           SKY/WX    TMP DP  RH WIND       PRES   REMARKS
BRANDON        CLOUDY    36  32  87 NW9       29.62R
DAUPHIN        SUNNY     36  32  87 W18G24    29.60S
ISLAND LAKE    CLOUDY    36  34  93 E3        29.52F
PILOT MOUND      N/A     34  32  93 NW10        N/A
THE PAS        CLOUDY    30  25  80 NW3       29.58R
THOMPSON       LGT SNOW  25  21  86 NE5       29.57F WCI  19
WINNIPEG       LGT RAIN  34  32  93 W12       29.59R
LYNN LAKE      CLOUDY    23  19  86 E8        29.58S WCI  14
CHURCHILL      PTSUNNY   12  10  92 E20       29.87F WCI  -6
GILLAM         LGT SNOW  23  19  86 E5        29.64F WCI  17
$$
                ***SASKATCHEWAN***

CITY           SKY/WX    TMP DP  RH WIND       PRES   REMARKS
ESTEVAN        MOSUNNY   37  34  87 SW7       29.65S
KINDERSLEY     PTSUNNY   37  28  70 W6        29.58F
LLOYDMINSTER   CLOUDY    34  28  80 NW8       29.57S
PRINCE ALBERT  CLOUDY    37  32  81 W7        29.58R
REGINA         MOSUNNY   41  34  75 W13       29.63S
YORKTON        CLOUDY    36  34  93 SW8       29.61R
N. BATTLEFORD  CLOUDY    36  32  87 NW10      29.61R
LA RONGE       LGT SNOW  28  27  93 SE2       29.54S FOG
SASKATOON      CLOUDY    36  30  80 NW6       29.62F
SWIFT CURRENT  SUNNY     45  25  45 W9        29.59R
$$
NOTE: THESE ARE AUTOMATED STATIONS WITH LIMITED QUALITY CONTROL
      "FAIR" INDICATES FEW OR NO CLOUDS BELOW 12,000 FEET WITH NO
      SIGNIFICANT WEATHER AND/OR OBSTRUCTIONS TO VISIBILITY.
      SKY/WX - SKY CONDITION AND SIGNIFICANT WEATHER.
      TMP - AIR TEMPERATURE.    DP   - DEWPOINT TEMPERATURE.
      RH  - RELATIVE HUMIDITY.  PRES - PRESSURE.
      HX  - HEAT INDEX.         WCI  - WIND CHILL INDEX.
$




USA.gov is the U.S. government's official web portal to all federal, state and local government web resources and services.